Location: Unspecified
(0.0000°N, 0.0000°E)
Time: 21:23:56
(UTC+00:00)

A-11 Canister half - All Passes

Search period start: 16 April 2026 00:00
Search period end: 26 April 2026 00:00
Orbit: 1523 x 1684 km, 47.3° (Epoch: 16 April)

Date Brightness Start Highest point End Pass type
(mag) Time Alt. Az. Time Alt. Az. Time Alt. Az.
16 Apr - 00:22:59 10° WNW 00:27:11 13° NW 00:31:28 10° NNW night (unlit)
16 Apr - 08:59:31 10° NNW 09:08:58 53° NE 09:18:06 10° SE daylight
16 Apr - 11:05:30 10° WNW 11:13:46 33° SW 11:21:53 10° S daylight
16 Apr - 19:47:49 10° S 19:54:45 22° SE 20:01:46 10° E visible
16 Apr - 21:50:02 10° SW 21:59:44 77° NW 22:09:44 10° NE visible
17 Apr - 00:00:22 10° WNW 00:05:15 15° NW 00:10:13 10° NNW night (unlit)
17 Apr - 08:37:44 10° NNW 08:47:06 49° NE 08:56:10 10° ESE daylight
17 Apr - 10:43:24 10° WNW 10:51:55 35° SW 11:00:15 10° SSE daylight
17 Apr - 19:26:20 10° S 19:32:51 20° SE 19:39:28 10° E visible
17 Apr - 21:28:11 10° SW 21:37:52 82° NW 21:47:53 10° NE visible
17 Apr - 23:37:51 10° W 23:43:18 16° NW 23:48:51 10° N night (unlit)
18 Apr - 08:15:58 10° NNW 08:25:15 46° NE 08:34:12 10° ESE daylight
18 Apr - 10:21:20 10° WNW 10:30:04 38° SW 10:38:36 10° SSE daylight
18 Apr - 19:04:53 10° S 19:10:57 18° SE 19:17:06 10° E visible
18 Apr - 21:06:20 10° SW 21:16:01 87° NW 21:26:01 10° NE visible
18 Apr - 23:15:26 10° W 23:21:22 17° NW 23:27:24 10° N night (unlit)
19 Apr - 07:54:13 10° NNW 08:03:23 43° NE 08:12:14 10° ESE daylight
19 Apr - 09:59:17 10° WNW 10:08:13 41° SW 10:16:56 10° SSE daylight
19 Apr - 18:43:29 10° S 18:49:03 17° SE 18:54:41 10° E visible
19 Apr - 20:44:31 10° SW 20:54:09 87° SE 21:04:07 10° NE visible
19 Apr - 22:53:05 10° W 22:59:26 19° NW 23:05:55 10° N night (unlit)
20 Apr - 07:32:28 10° NNW 07:41:31 40° NE 07:50:14 10° ESE daylight
20 Apr - 09:37:14 10° WNW 09:46:21 45° SW 09:55:14 10° SSE daylight
20 Apr - 18:22:10 10° SSE 18:27:08 15° SE 18:32:10 10° ESE visible
20 Apr - 20:22:42 10° SW 20:32:18 82° SE 20:42:14 10° NE visible
20 Apr - 22:30:48 10° W 22:37:30 21° NW 22:44:23 10° N visible
21 Apr - 07:10:46 10° NNW 07:19:38 37° NE 07:28:13 10° ESE daylight
21 Apr - 09:15:13 10° WNW 09:24:30 48° SW 09:33:32 10° SSE daylight
21 Apr - 18:00:56 10° SSE 18:05:14 14° SE 18:09:32 10° ESE daylight
21 Apr - 20:00:55 10° SW 20:10:28 77° SE 20:20:20 10° NE visible
21 Apr - 22:08:33 10° W 22:15:36 22° NW 22:22:49 10° N visible
22 Apr - 06:49:03 10° NNW 06:57:45 34° NE 07:06:11 10° ESE daylight
22 Apr - 08:53:13 10° NW 09:02:39 52° SW 09:11:49 10° SSE daylight
22 Apr - 17:39:54 10° SSE 17:43:18 12° SE 17:46:44 10° ESE daylight
22 Apr - 19:39:07 10° SSW 19:48:36 72° SE 19:58:25 10° NE visible
22 Apr - 21:46:21 10° W 21:53:41 24° NW 22:01:13 10° N visible
23 Apr - 06:27:21 10° N 06:35:52 32° NE 06:44:07 10° ESE daylight
23 Apr - 08:31:15 10° NW 08:40:48 56° SW 08:50:05 10° SSE daylight
23 Apr - 17:19:14 10° SSE 17:21:23 11° SE 17:23:32 10° ESE daylight
23 Apr - 19:17:21 10° SSW 19:26:46 67° SE 19:36:28 10° NE visible
23 Apr - 21:24:11 10° W 21:31:47 26° NW 21:39:36 10° N visible
24 Apr - 06:05:40 10° N 06:13:58 29° NE 06:22:01 10° ESE daylight
24 Apr - 08:09:16 10° NW 08:18:57 60° SW 08:28:21 10° SSE daylight
24 Apr - 18:55:35 10° SSW 19:04:55 62° SE 19:14:32 10° NE visible
24 Apr - 21:02:03 10° WSW 21:09:53 28° NW 21:17:57 10° N visible
25 Apr - 05:44:01 10° N 05:52:04 27° NE 05:59:54 10° ESE daylight
25 Apr - 07:47:18 10° NW 07:57:05 65° SW 08:06:34 10° SSE daylight
25 Apr - 10:01:01 10° SW 10:02:32 10° SW 10:04:04 10° SW daylight
25 Apr - 18:33:49 10° SSW 18:43:04 58° SE 18:52:35 10° NE visible
25 Apr - 20:39:57 10° WSW 20:48:00 30° NW 20:56:17 10° N visible
